Location: Newark
(41.6500°N, 71.4833°W)
Time: 12:51:20
(UTC+00:00)

S-56A Canister/Altair - Visible Passes

Search period start: 20 January 2020 00:00
Search period end: 30 January 2020 00:00
Orbit: 634 x 2498 km, 38.9° (Epoch: 19 January)

Date Brightness Start Highest point End Pass type
(mag) Time Alt. Az. Time Alt. Az. Time Alt. Az.
22 Jan 10.0 00:42:02 10° SSW 00:43:36 15° S 00:43:36 15° S visible
23 Jan 9.6 00:09:20 10° SSW 00:12:56 18° SSE 00:12:56 18° SSE visible
23 Jan 9.5 23:36:37 10° S 23:41:11 18° SSE 23:42:16 17° SE visible
24 Jan 10.4 01:39:04 10° SW 01:39:43 13° SW 01:39:43 13° SW visible
24 Jan 9.7 23:03:54 10° S 23:08:29 17° SSE 23:11:34 12° ESE visible
25 Jan 9.6 01:06:05 10° SW 01:09:01 24° SW 01:09:01 24° SW visible
25 Jan 9.9 22:31:13 10° S 22:35:45 16° SSE 22:39:31 10° ESE visible
26 Jan 8.9 00:33:02 10° SW 00:38:18 35° S 00:38:18 35° S visible
26 Jan 8.6 23:59:56 10° SW 00:06:55 38° SSE 00:07:33 37° SE visible
27 Jan 10.6 02:04:35 10° WSW 02:05:00 12° WSW 02:05:00 12° WSW visible
27 Jan 8.9 23:26:46 10° SW 23:34:13 36° SSE 23:36:48 26° ESE visible
28 Jan 9.8 01:31:29 10° WSW 01:34:14 24° WSW 01:34:14 24° WSW visible
28 Jan 9.3 22:53:35 10° SW 23:01:28 34° SSE 23:06:01 15° E visible
29 Jan 8.8 00:58:17 10° WSW 01:03:27 43° SW 01:03:27 43° SW visible
29 Jan 9.6 22:20:21 10° SSW 22:28:40 33° SSE 22:34:33 10° E visible
